| time (UTC) | temp C | wind direction | speed KPH | gust KPH | rain 1hr cm | rain 24hr cm | rain mn cm | humidity % | barometer mb |
| 20260507214421 | 19 | 339 | 0.0 | 3.2 | 0.00 | 0.00 | 0.00 | 1111.1 | |
| 20260507213915 | 19 | 275 | 0.0 | 0.0 | 0.00 | 0.00 | 0.00 | 1111.1 | |
| 20260507213410 | 19 | 279 | 0.0 | 0.0 | 0.00 | 0.00 | 0.00 | 1111.1 | |
| 20260507212905 | 19 | 315 | 0.0 | 0.0 | 0.00 | 0.00 | 0.00 | 1111.1 | |
| 20260507212359 | 19 | 329 | 0.0 | 0.0 | 0.00 | 0.00 | 0.00 | 1111.1 | |
| 20260507211854 | 19 | 225 | 0.0 | 0.0 | 0.00 | 0.00 | 0.00 | 1111.0 | |
| 20260507211348 | 19 | 235 | 0.0 | 0.0 | 0.00 | 0.00 | 0.00 | 1110.9 | |
| 20260507210842 | 19 | 272 | 0.0 | 3.2 | 0.00 | 0.00 | 0.00 | 1111.0 | |
| 20260507210337 | 20 | 324 | 0.0 | 3.2 | 0.00 | 0.00 | 0.00 | 1111.0 | |
| 20260507205831 | 20 | 317 | 0.0 | 0.0 | 0.00 | 0.00 | 0.00 | 1111.0 | |
| 20260507205326 | 20 | 286 | 0.0 | 0.0 | 0.00 | 0.00 | 0.00 | 1111.0 | |
| 20260507204820 | 20 | 315 | 0.0 | 0.0 | 0.00 | 0.00 | 0.00 | 1111.0 | |
| 20260507204315 | 20 | 272 | 0.0 | 0.0 | 0.00 | 0.00 | 0.00 | 1110.9 | |
| 20260507203810 | 20 | 315 | 0.0 | 0.0 | 0.00 | 0.00 | 0.00 | 1110.9 | |
| 20260507203304 | 20 | 311 | 0.0 | 3.2 | 0.00 | 0.00 | 0.00 | 1110.9 | |
| 20260507202759 | 20 | 353 | 0.0 | 4.8 | 0.00 | 0.00 | 0.00 | 1111.0 | |
| 20260507202254 | 20 | 280 | 0.0 | 4.8 | 0.00 | 0.00 | 0.00 | 1110.9 | |
| 20260507201748 | 20 | 199 | 0.0 | 3.2 | 0.00 | 0.00 | 0.00 | 1110.8 | |
| 20260507201243 | 20 | 315 | 0.0 | 0.0 | 0.00 | 0.00 | 0.00 | 1110.8 | |
| 20260507200737 | 20 | 247 | 0.0 | 3.2 | 0.00 | 0.00 | 0.00 | 1110.8 | |
| 20260507200232 | 20 | 315 | 0.0 | 0.0 | 0.00 | 0.00 | 0.00 | 1110.7 | |
| 20260507195726 | 20 | 270 | 0.0 | 0.0 | 0.00 | 0.00 | 0.00 | 1110.5 | |
| 20260507195221 | 20 | 0 | 0.0 | 0.0 | 0.00 | 0.00 | 0.00 | 1110.5 | |
| 20260507194716 | 20 | 314 | 0.0 | 0.0 | 0.00 | 0.00 | 0.00 | 1110.5 | |
| 20260507194210 | 20 | 0 | 0.0 | 0.0 | 0.00 | 0.00 | 0.00 | 1110.5 | |
| 20260507193705 | 20 | 314 | 0.0 | 3.2 | 0.00 | 0.00 | 0.00 | 1110.3 | |
| 20260507193159 | 20 | 323 | 0.0 | 3.2 | 0.00 | 0.00 | 0.00 | 1110.2 | |
| 20260507192654 | 20 | 315 | 0.0 | 3.2 | 0.00 | 0.00 | 0.00 | 1110.2 | |
| 20260507192149 | 20 | 315 | 0.0 | 3.2 | 0.00 | 0.00 | 0.00 | 1110.2 | |
| 20260507191643 | 20 | 357 | 0.0 | 0.0 | 0.00 | 0.00 | 0.00 | 1110.2 | |
| 20260507191138 | 20 | 240 | 0.0 | 0.0 | 0.00 | 0.00 | 0.00 | 1110.0 | |
| 20260507190632 | 20 | 315 | 0.0 | 0.0 | 0.00 | 0.00 | 0.00 | 1109.9 | |
| 20260507190127 | 20 | 293 | 0.0 | 0.0 | 0.00 | 0.00 | 0.00 | 1109.9 | |
| 20260507185621 | 21 | 315 | 0.0 | 0.0 | 0.00 | 0.00 | 0.00 | 1109.9 | |
| 20260507185116 | 21 | 315 | 0.0 | 0.0 | 0.00 | 0.00 | 0.00 | 1109.7 | |
| 20260507184611 | 21 | 23 | 0.0 | 0.0 | 0.00 | 0.00 | 0.00 | 1109.6 | |
| 20260507184114 | 21 | 315 | 0.0 | 0.0 | 0.00 | 0.00 | 0.00 | 1109.7 | |
| 20260507183600 | 21 | 296 | 0.0 | 3.2 | 0.00 | 0.00 | 0.00 | 1109.3 | |
| 20260507183054 | 21 | 284 | 0.0 | 3.2 | 0.00 | 0.00 | 0.00 | 1109.4 | |
| 20260507182549 | 22 | 334 | 0.0 | 0.0 | 0.00 | 0.00 | 0.00 | 1109.3 | |
| 20260507182044 | 22 | 89 | 0.0 | 0.0 | 0.00 | 0.00 | 0.00 | 1109.2 | |
| 20260507181538 | 22 | 89 | 0.0 | 0.0 | 0.00 | 0.00 | 0.00 | 1109.1 | |
| 20260507181033 | 22 | 89 | 0.0 | 0.0 | 0.00 | 0.00 | 0.00 | 1109.0 | |
| 20260507180527 | 22 | 89 | 0.0 | 0.0 | 0.00 | 0.00 | 0.00 | 1108.9 | |
| 20260507180022 | 22 | 89 | 0.0 | 0.0 | 0.00 | 0.00 | 0.00 | 1108.6 | |
| 20260507175517 | 22 | 89 | 0.0 | 0.0 | 0.00 | 0.00 | 0.00 | 1108.7 | |
| 20260507175011 | 22 | 89 | 0.0 | 0.0 | 0.00 | 0.00 | 0.00 | 1108.6 | |
| 20260507174506 | 23 | 120 | 0.0 | 0.0 | 0.00 | 0.00 | 0.00 | 1108.6 | |
| 20260507174000 | 23 | 225 | 0.0 | 0.0 | 0.00 | 0.00 | 0.00 | 1108.5 | |
| 20260507173455 | 23 | 225 | 0.0 | 0.0 | 0.00 | 0.00 | 0.00 | 1108.4 | |
| 20260507172949 | 24 | 225 | 0.0 | 0.0 | 0.00 | 0.00 | 0.00 | 1108.3 | |
| 20260507172444 | 24 | 225 | 0.0 | 0.0 | 0.00 | 0.00 | 0.00 | 1108.4 | |
| 20260507171939 | 24 | 225 | 0.0 | 0.0 | 0.00 | 0.00 | 0.00 | 1108.3 | |
| 20260507171433 | 24 | 225 | 0.0 | 0.0 | 0.00 | 0.00 | 0.00 | 1108.4 | |
| 20260507170928 | 24 | 225 | 0.0 | 0.0 | 0.00 | 0.00 | 0.00 | 1108.3 | |
| 20260507170423 | 24 | 225 | 0.0 | 0.0 | 0.00 | 0.00 | 0.00 | 1108.5 | |
| 20260507165916 | 24 | 270 | 0.0 | 0.0 | 0.00 | 0.00 | 0.00 | 1108.5 | |
| 20260507165411 | 24 | 270 | 0.0 | 0.0 | 0.00 | 0.00 | 0.00 | 1108.7 | |
| 20260507164905 | 24 | 270 | 0.0 | 0.0 | 0.00 | 0.00 | 0.00 | 1108.6 | |
| 20260507164400 | 24 | 270 | 0.0 | 0.0 | 0.00 | 0.00 | 0.00 | 1108.6 | |
| 20260507163854 | 24 | 270 | 0.0 | 0.0 | 0.00 | 0.00 | 0.00 | 1108.6 | |
| 20260507163349 | 24 | 259 | 0.0 | 0.0 | 0.00 | 0.00 | 0.00 | 1108.4 | |
| 20260507162843 | 24 | 134 | 0.0 | 0.0 | 0.00 | 0.00 | 0.00 | 1108.4 | |
| 20260507162338 | 23 | 134 | 0.0 | 0.0 | 0.00 | 0.00 | 0.00 | 1108.5 | |
| 20260507161833 | 23 | 134 | 0.0 | 0.0 | 0.00 | 0.00 | 0.00 | 1108.4 | |
| 20260507161327 | 23 | 134 | 0.0 | 0.0 | 0.00 | 0.00 | 0.00 | 1108.4 | |
| 20260507160822 | 23 | 134 | 0.0 | 0.0 | 0.00 | 0.00 | 0.00 | 1108.4 | |
| 20260507160317 | 23 | 134 | 0.0 | 0.0 | 0.00 | 0.00 | 0.00 | 1108.3 | |
| 20260507155811 | 23 | 134 | 0.0 | 0.0 | 0.00 | 0.00 | 0.00 | 1108.4 | |
| 20260507155306 | 23 | 134 | 0.0 | 0.0 | 0.00 | 0.00 | 0.00 | 1108.4 | |
| 20260507154800 | 23 | 134 | 0.0 | 0.0 | 0.00 | 0.00 | 0.00 | 1108.3 | |
| 20260507154255 | 23 | 105 | 0.0 | 0.0 | 0.00 | 0.00 | 0.00 | 1108.2 | |
| 20260507153749 | 23 | 109 | 0.0 | 0.0 | 0.00 | 0.00 | 0.00 | 1108.5 | |
| 20260507153244 | 23 | 49 | 0.0 | 0.0 | 0.00 | 0.00 | 0.00 | 1108.4 | |
| 20260507152739 | 24 | 0 | 0.0 | 0.0 | 0.00 | 0.00 | 0.00 | 1108.5 | |
| 20260507152233 | 24 | 225 | 0.0 | 0.0 | 0.00 | 0.00 | 0.00 | 1108.4 | |
| 20260507151728 | 24 | 225 | 0.0 | 6.4 | 0.00 | 0.00 | 0.00 | 1108.4 | |
| 20260507151222 | 24 | 73 | 0.0 | 6.4 | 0.00 | 0.00 | 0.00 | 1108.4 | |
| 20260507150717 | 25 | 212 | 0.0 | 8.0 | 0.00 | 0.00 | 0.00 | 1108.3 | |
| 20260507150211 | 25 | 40 | 0.0 | 3.2 | 0.00 | 0.00 | 0.00 | 1108.0 | |
| 20260507145705 | 25 | 109 | 0.0 | 0.0 | 0.00 | 0.00 | 0.00 | 1107.8 | |
| 20260507145200 | 26 | 129 | 0.0 | 0.0 | 0.00 | 0.00 | 0.00 | 1107.8 | |
| 20260507144654 | 26 | 0 | 0.0 | 0.0 | 0.00 | 0.00 | 0.00 | 1107.8 | |
| 20260507144149 | 26 | 134 | 0.0 | 0.0 | 0.00 | 0.00 | 0.00 | 1107.7 | |
| 20260507143650 | 26 | 104 | 0.0 | 0.0 | 0.00 | 0.00 | 0.00 | 1107.3 | |
| 20260507143137 | 27 | 315 | 0.0 | 0.0 | 0.00 | 0.00 | 0.00 | 1107.2 | |
| 20260507142631 | 27 | 130 | 0.0 | 0.0 | 0.00 | 0.00 | 0.00 | 1107.2 | |
| 20260507142125 | 27 | 176 | 0.0 | 0.0 | 0.00 | 0.00 | 0.00 | 1107.0 | |
| 20260507141620 | 27 | 44 | 0.0 | 0.0 | 0.00 | 0.00 | 0.00 | 1107.0 | |
| 20260507141114 | 26 | 42 | 0.0 | 0.0 | 0.00 | 0.00 | 0.00 | 1107.2 | |
| 20260507140608 | 26 | 25 | 0.0 | 0.0 | 0.00 | 0.00 | 0.00 | 1107.3 | |
| 20260507135557 | 26 | 11 | 0.0 | 0.0 | 0.00 | 0.00 | 0.00 | 1107.4 | |
| 20260507135052 | 26 | 46 | 0.0 | 3.2 | 0.00 | 0.00 | 0.00 | 1107.5 | |
| 20260507134553 | 26 | 52 | 0.0 | 3.2 | 0.00 | 0.00 | 0.00 | 1107.5 | |
| 20260507134041 | 26 | 60 | 0.0 | 3.2 | 0.00 | 0.00 | 0.00 | 1107.5 | |
| 20260507133535 | 26 | 84 | 0.0 | 0.0 | 0.00 | 0.00 | 0.00 | 1107.6 | |
| 20260507133030 | 26 | 0 | 0.0 | 3.2 | 0.00 | 0.00 | 0.00 | 1107.4 | |
| 20260507132525 | 26 | 20 | 0.0 | 3.2 | 0.00 | 0.00 | 0.00 | 1107.4 | |
| 20260507132019 | 26 | 78 | 0.0 | 0.0 | 0.00 | 0.00 | 0.00 | 1107.6 | |
| 20260507131514 | 26 | 69 | 0.0 | 0.0 | 0.00 | 0.00 | 0.00 | 1107.7 | |
| 20260507131008 | 26 | 45 | 0.0 | 0.0 | 0.00 | 0.00 | 0.00 | 1107.7 | |
| 20260507130503 | 26 | 34 | 0.0 | 0.0 | 0.00 | 0.00 | 0.00 | 1107.7 | |
| 20260507125958 | 26 | 114 | 0.0 | 0.0 | 0.00 | 0.00 | 0.00 | 1107.7 | |
| 20260507125452 | 26 | 266 | 0.0 | 0.0 | 0.00 | 0.00 | 0.00 | 1107.7 | |
| 20260507124948 | 26 | 89 | 0.0 | 0.0 | 0.00 | 0.00 | 0.00 | 1107.6 | |
| 20260507124441 | 26 | 84 | 0.0 | 0.0 | 0.00 | 0.00 | 0.00 | 1107.6 | |
| 20260507123936 | 26 | 57 | 0.0 | 0.0 | 0.00 | 0.00 | 0.00 | 1107.7 | |
| 20260507123430 | 26 | 228 | 0.0 | 3.2 | 0.00 | 0.00 | 0.00 | 1107.7 | |
| 20260507122925 | 26 | 48 | 0.0 | 3.2 | 0.00 | 0.00 | 0.00 | 1107.6 | |
| 20260507122420 | 26 | 79 | 0.0 | 0.0 | 0.00 | 0.00 | 0.00 | 1107.8 | |
| 20260507121914 | 26 | 45 | 0.0 | 0.0 | 0.00 | 0.00 | 0.00 | 1107.8 | |
| 20260507121409 | 26 | 50 | 0.0 | 0.0 | 0.00 | 0.00 | 0.00 | 1107.8 | |
| 20260507120909 | 26 | 55 | 0.0 | 0.0 | 0.00 | 0.00 | 0.00 | 1107.7 | |
| 20260507120358 | 26 | 324 | 0.0 | 0.0 | 0.00 | 0.00 | 0.00 | 1107.8 | |
| 20260507115853 | 26 | 47 | 0.0 | 0.0 | 0.00 | 0.00 | 0.00 | 1107.8 | |
| 20260507115347 | 26 | 64 | 0.0 | 0.0 | 0.00 | 0.00 | 0.00 | 1107.7 | |
| 20260507114842 | 26 | 139 | 0.0 | 0.0 | 0.00 | 0.00 | 0.00 | 1107.7 | |
| 20260507114342 | 26 | 89 | 0.0 | 0.0 | 0.00 | 0.00 | 0.00 | 1107.6 | |
| 20260507113831 | 26 | 45 | 0.0 | 0.0 | 0.00 | 0.00 | 0.00 | 1107.9 | |
| 20260507113326 | 26 | 58 | 0.0 | 3.2 | 0.00 | 0.00 | 0.00 | 1107.8 | |
| 20260507112820 | 26 | 0 | 0.0 | 0.0 | 0.00 | 0.00 | 0.00 | 1108.0 | |
| 20260507112315 | 26 | 89 | 0.0 | 0.0 | 0.00 | 0.00 | 0.00 | 1108.1 | |
| 20260507111809 | 26 | 37 | 0.0 | 0.0 | 0.00 | 0.00 | 0.00 | 1108.0 | |
| 20260507111304 | 26 | 56 | 0.0 | 0.0 | 0.00 | 0.00 | 0.00 | 1108.1 | |
| 20260507110758 | 26 | 5 | 0.0 | 0.0 | 0.00 | 0.00 | 0.00 | 1108.1 | |
| 20260507110252 | 26 | 19 | 0.0 | 0.0 | 0.00 | 0.00 | 0.00 | 1108.1 | |
| 20260507105746 | 26 | 0 | 0.0 | 0.0 | 0.00 | 0.00 | 0.00 | 1108.2 | |
| 20260507105241 | 26 | 95 | 0.0 | 3.2 | 0.00 | 0.00 | 0.00 | 1108.1 | |
| 20260507104736 | 26 | 21 | 0.0 | 3.2 | 0.00 | 0.00 | 0.00 | 1108.3 | |
| 20260507104230 | 26 | 49 | 0.0 | 0.0 | 0.00 | 0.00 | 0.00 | 1108.2 | |
| 20260507103725 | 26 | 45 | 0.0 | 0.0 | 0.00 | 0.00 | 0.00 | 1108.2 | |
| 20260507103219 | 27 | 29 | 0.0 | 0.0 | 0.00 | 0.00 | 0.00 | 1108.3 | |
| 20260507102714 | 27 | 79 | 0.0 | 0.0 | 0.00 | 0.00 | 0.00 | 1108.3 | |
| 20260507102209 | 27 | 40 | 0.0 | 0.0 | 0.00 | 0.00 | 0.00 | 1108.3 | |
| 20260507101703 | 27 | 56 | 0.0 | 0.0 | 0.00 | 0.00 | 0.00 | 1108.3 | |
| 20260507101158 | 27 | 41 | 0.0 | 3.2 | 0.00 | 0.00 | 0.00 | 1108.4 | |
| 20260507100652 | 27 | 58 | 0.0 | 3.2 | 0.00 | 0.00 | 0.00 | 1108.4 | |
| 20260507100147 | 27 | 45 | 0.0 | 3.2 | 0.00 | 0.00 | 0.00 | 1108.3 | |
| 20260507095642 | 27 | 58 | 0.0 | 0.0 | 0.00 | 0.00 | 0.00 | 1108.5 | |
| 20260507095136 | 27 | 70 | 0.0 | 0.0 | 0.00 | 0.00 | 0.00 | 1108.3 | |
| 20260507094631 | 26 | 89 | 0.0 | 0.0 | 0.00 | 0.00 | 0.00 | 1108.4 | |
| 20260507094125 | 26 | 46 | 0.0 | 0.0 | 0.00 | 0.00 | 0.00 | 1108.3 | |
| 20260507093620 | 26 | 45 | 0.0 | 0.0 | 0.00 | 0.00 | 0.00 | 1108.4 | |
| 20260507093115 | 26 | 45 | 0.0 | 0.0 | 0.00 | 0.00 | 0.00 | 1108.3 | |
| 20260507092609 | 26 | 62 | 0.0 | 0.0 | 0.00 | 0.00 | 0.00 | 1108.3 | |
| 20260507092104 | 26 | 45 | 0.0 | 0.0 | 0.00 | 0.00 | 0.00 | 1108.3 | |
| 20260507091558 | 26 | 134 | 0.0 | 0.0 | 0.00 | 0.00 | 0.00 | 1108.3 | |
| 20260507091053 | 26 | 45 | 0.0 | 0.0 | 0.00 | 0.00 | 0.00 | 1108.3 | |
| 20260507090547 | 26 | 32 | 0.0 | 0.0 | 0.00 | 0.00 | 0.00 | 1108.3 | |
| 20260507090041 | 26 | 0 | 0.0 | 0.0 | 0.00 | 0.00 | 0.00 | 1108.3 | |
| 20260507085536 | 26 | 0 | 0.0 | 0.0 | 0.00 | 0.00 | 0.00 | 1108.3 | |
| 20260507085030 | 25 | 315 | 0.0 | 0.0 | 0.00 | 0.00 | 0.00 | 1108.2 | |
| 20260507084525 | 25 | 329 | 0.0 | 0.0 | 0.00 | 0.00 | 0.00 | 1108.2 | |
| 20260507084019 | 25 | 0 | 0.0 | 0.0 | 0.00 | 0.00 | 0.00 | 1108.2 | |
| 20260507083514 | 24 | 0 | 0.0 | 0.0 | 0.00 | 0.00 | 0.00 | 1108.2 | |
| 20260507083009 | 23 | 0 | 0.0 | 0.0 | 0.00 | 0.00 | 0.00 | 1108.1 | |
| 20260507082503 | 23 | 0 | 0.0 | 3.2 | 0.00 | 0.00 | 0.00 | 1108.2 | |
| 20260507081958 | 23 | 0 | 0.0 | 3.2 | 0.00 | 0.00 | 0.00 | 1108.1 | |
| 20260507081452 | 23 | 327 | 0.0 | 0.0 | 0.00 | 0.00 | 0.00 | 1108.0 | |
| 20260507080946 | 23 | 159 | 0.0 | 0.0 | 0.00 | 0.00 | 0.00 | 1108.0 | |
| 20260507080441 | 23 | 315 | 0.0 | 0.0 | 0.00 | 0.00 | 0.00 | 1108.1 | |
| 20260507075935 | 23 | 315 | 0.0 | 0.0 | 0.00 | 0.00 | 0.00 | 1108.0 | |
| 20260507075429 | 23 | 315 | 0.0 | 4.8 | 0.00 | 0.00 | 0.00 | 1108.0 | |
| 20260507074923 | 23 | 12 | 1.6 | 4.8 | 0.00 | 0.00 | 0.00 | 1108.0 | |
| 20260507074733 | 23 | 276 | 0.0 | 0.0 | 0.00 | 0.00 | 0.00 | 1107.9 | |
| 20260507074418 | 23 | 315 | 0.0 | 0.0 | 0.00 | 0.00 | 0.00 | 1108.0 | |
| 20260507073912 | 23 | 276 | 0.0 | 0.0 | 0.00 | 0.00 | 0.00 | 1107.9 | |
| 20260507073407 | 23 | 270 | 0.0 | 0.0 | 0.00 | 0.00 | 0.00 | 1108.0 | |
| 20260507072902 | 23 | 155 | 0.0 | 3.2 | 0.00 | 0.00 | 0.00 | 1108.0 | |
| 20260507072356 | 23 | 20 | 0.0 | 4.8 | 0.00 | 0.00 | 0.00 | 1108.0 | |
| 20260507071345 | 23 | 351 | 0.0 | 4.8 | 0.00 | 0.00 | 0.00 | 1107.9 | |
| 20260507070840 | 22 | 30 | 0.0 | 3.2 | 0.00 | 0.00 | 0.00 | 1108.0 | |
| 20260507070334 | 22 | 30 | 0.0 | 6.4 | 0.00 | 0.00 | 0.00 | 1107.9 | |
| 20260507065829 | 22 | 33 | 1.6 | 6.4 | 0.00 | 0.00 | 0.00 | 1107.9 | |
| 20260507065323 | 22 | 358 | 0.0 | 3.2 | 0.00 | 0.00 | 0.00 | 1107.9 | |
| 20260507064817 | 21 | 0 | 0.0 | 3.2 | 0.00 | 0.00 | 0.00 | 1107.9 | |
| 20260507064312 | 21 | 46 | 0.0 | 0.0 | 0.00 | 0.00 | 0.00 | 1107.9 | |
| 20260507063806 | 21 | 168 | 0.0 | 0.0 | 0.00 | 0.00 | 0.00 | 1107.8 | |
| 20260507063301 | 21 | 35 | 0.0 | 0.0 | 0.00 | 0.00 | 0.00 | 1107.8 | |
| 20260507062754 | 21 | 332 | 0.0 | 0.0 | 0.00 | 0.00 | 0.00 | 1107.7 | |
| 20260507062249 | 21 | 12 | 0.0 | 0.0 | 0.00 | 0.00 | 0.00 | 1107.8 | |
| 20260507061744 | 21 | 328 | 0.0 | 0.0 | 0.00 | 0.00 | 0.00 | 1107.7 | |
| 20260507061238 | 22 | 356 | 0.0 | 0.0 | 0.00 | 0.00 | 0.00 | 1107.6 | |
| 20260507060732 | 22 | 84 | 0.0 | 3.2 | 0.00 | 0.00 | 0.00 | 1107.5 | |
| 20260507060226 | 22 | 61 | 0.0 | 3.2 | 0.00 | 0.00 | 0.00 | 1107.5 | |
| 20260507055721 | 22 | 54 | 0.0 | 3.2 | 0.00 | 0.00 | 0.00 | 1107.5 | |
| 20260507055215 | 22 | 340 | 0.0 | 4.8 | 0.00 | 0.00 | 0.00 | 1107.3 | |
| 20260507054709 | 22 | 344 | 0.0 | 4.8 | 0.00 | 0.00 | 0.00 | 1107.2 | |
| 20260507054204 | 22 | 64 | 0.0 | 0.0 | 0.00 | 0.00 | 0.00 | 1107.3 | |
| 20260507053658 | 23 | 180 | 0.0 | 0.0 | 0.00 | 0.00 | 0.00 | 1107.1 | |
| 20260507053153 | 23 | 315 | 0.0 | 0.0 | 0.00 | 0.00 | 0.00 | 1107.1 | |
| 20260507052648 | 23 | 315 | 0.0 | 0.0 | 0.00 | 0.00 | 0.00 | 1107.0 | |
| 20260507052142 | 22 | 252 | 0.0 | 0.0 | 0.00 | 0.00 | 0.00 | 1106.9 | |
| 20260507051637 | 20 | 197 | 0.0 | 0.0 | 0.00 | 0.00 | 0.00 | 1106.8 | |
| 20260507051131 | 20 | 13 | 0.0 | 0.0 | 0.00 | 0.00 | 0.00 | 1106.8 | |
| 20260507050626 | 20 | 45 | 0.0 | 0.0 | 0.00 | 0.00 | 0.00 | 1106.6 | |
| 20260507050120 | 20 | 44 | 0.0 | 0.0 | 0.00 | 0.00 | 0.00 | 1106.6 | |
| 20260507045615 | 19 | 0 | 0.0 | 0.0 | 0.00 | 0.00 | 0.00 | 1106.7 | |
| 20260507045110 | 19 | 0 | 0.0 | 0.0 | 0.00 | 0.00 | 0.00 | 1106.6 | |
| 20260507044604 | 19 | 79 | 0.0 | 0.0 | 0.00 | 0.00 | 0.00 | 1106.4 | |
| 20260507044059 | 19 | 3 | 0.0 | 0.0 | 0.00 | 0.00 | 0.00 | 1106.4 | |
| 20260507043553 | 18 | 3 | 0.0 | 0.0 | 0.00 | 0.00 | 0.00 | 1106.3 | |
| 20260507043048 | 18 | 3 | 0.0 | 0.0 | 0.00 | 0.00 | 0.00 | 1106.3 | |
| 20260507042543 | 18 | 1 | 0.0 | 0.0 | 0.00 | 0.00 | 0.00 | 1106.3 | |
| 20260507042037 | 18 | 0 | 0.0 | 0.0 | 0.00 | 0.00 | 0.00 | 1106.3 | |
| 20260507041532 | 18 | 136 | 0.0 | 4.8 | 0.00 | 0.00 | 0.00 | 1106.3 | |
| 20260507041026 | 18 | 200 | 0.0 | 4.8 | 0.00 | 0.00 | 0.00 | 1106.3 | |
| 20260507040521 | 18 | 96 | 0.0 | 4.8 | 0.00 | 0.00 | 0.00 | 1106.2 | |
| 20260507040016 | 18 | 315 | 0.0 | 4.8 | 0.00 | 0.00 | 0.00 | 1106.2 | |
| 20260507035510 | 18 | 15 | 0.0 | 4.8 | 0.00 | 0.00 | 0.00 | 1106.1 | |
| 20260507035005 | 18 | 317 | 0.0 | 4.8 | 0.00 | 0.00 | 0.00 | 1106.0 | |
| 20260507034459 | 18 | 40 | 1.6 | 6.4 | 0.00 | 0.00 | 0.00 | 1106.0 | |
| 20260507033954 | 18 | 55 | 1.6 | 9.7 | 0.00 | 0.00 | 0.00 | 1106.1 | |
| 20260507033448 | 18 | 11 | 1.6 | 9.7 | 0.00 | 0.00 | 0.00 | 1106.1 | |
| 20260507032942 | 18 | 182 | 1.6 | 8.0 | 0.00 | 0.00 | 0.00 | 1106.1 | |
| 20260507032437 | 18 | 34 | 3.2 | 8.0 | 0.00 | 0.00 | 0.00 | 1106.1 | |
| 20260507031931 | 18 | 36 | 0.0 | 3.2 | 0.00 | 0.00 | 0.00 | 1106.1 | |
| 20260507031426 | 18 | 18 | 0.0 | 3.2 | 0.00 | 0.00 | 0.00 | 1106.1 | |
| 20260507030920 | 17 | 268 | 0.0 | 4.8 | 0.00 | 0.00 | 0.00 | 1106.1 | |
| 20260507030415 | 17 | 43 | 0.0 | 4.8 | 0.00 | 0.00 | 0.00 | 1106.2 | |
| 20260507025908 | 17 | 63 | 0.0 | 4.8 | 0.00 | 0.00 | 0.00 | 1106.2 | |
| 20260507025403 | 17 | 37 | 0.0 | 4.8 | 0.00 | 0.00 | 0.00 | 1106.1 | |
| 20260507024352 | 17 | 23 | 0.0 | 4.8 | 0.00 | 0.00 | 0.00 | 1106.0 | |
| 20260507023847 | 17 | 200 | 0.0 | 0.0 | 0.00 | 0.00 | 0.00 | 1106.1 | |
| 20260507023341 | 17 | 0 | 0.0 | 0.0 | 0.00 | 0.00 | 0.00 | 1106.0 | |
| 20260507022836 | 17 | 45 | 0.0 | 0.0 | 0.00 | 0.00 | 0.00 | 1106.0 | |
| 20260507022331 | 17 | 0 | 0.0 | 0.0 | 0.00 | 0.00 | 0.00 | 1106.0 | |
| 20260507021825 | 17 | 0 | 0.0 | 0.0 | 0.00 | 0.00 | 0.00 | 1106.1 | |
| 20260507021320 | 17 | 0 | 0.0 | 0.0 | 0.00 | 0.00 | 0.00 | 1106.1 | |
| 20260507020814 | 17 | 0 | 0.0 | 0.0 | 0.00 | 0.00 | 0.00 | 1106.2 | |
| 20260507020309 | 17 | 0 | 0.0 | 0.0 | 0.00 | 0.00 | 0.00 | 1106.1 | |
| 20260507015804 | 17 | 0 | 0.0 | 0.0 | 0.00 | 0.00 | 0.00 | 1106.1 | |
| 20260507015258 | 17 | 45 | 0.0 | 0.0 | 0.00 | 0.00 | 0.00 | 1106.1 | |
| 20260507014753 | 17 | 45 | 0.0 | 0.0 | 0.00 | 0.00 | 0.00 | 1106.1 | |
| 20260507014247 | 17 | 45 | 0.0 | 3.2 | 0.00 | 0.00 | 0.00 | 1106.1 | |
| 20260507013742 | 17 | 30 | 0.0 | 3.2 | 0.00 | 0.00 | 0.00 | 1105.9 | |
| 20260507013237 | 17 | 14 | 0.0 | 3.2 | 0.00 | 0.00 | 0.00 | 1106.0 | |
| 20260507012731 | 17 | 275 | 0.0 | 4.8 | 0.00 | 0.00 | 0.00 | 1105.9 | |
| 20260507012226 | 18 | 0 | 0.0 | 3.2 | 0.00 | 0.00 | 0.00 | 1105.9 | |
| 20260507011720 | 18 | 14 | 0.0 | 3.2 | 0.00 | 0.00 | 0.00 | 1106.0 | |
| 20260507011215 | 18 | 0 | 0.0 | 0.0 | 0.00 | 0.00 | 0.00 | 1105.9 | |
| 20260507010709 | 18 | 0 | 0.0 | 0.0 | 0.00 | 0.00 | 0.00 | 1106.0 | |
| 20260507010204 | 18 | 315 | 0.0 | 0.0 | 0.00 | 0.00 | 0.00 | 1106.0 | |
| 20260507005659 | 18 | 315 | 0.0 | 0.0 | 0.00 | 0.00 | 0.00 | 1106.0 | |
| 20260507005153 | 18 | 315 | 0.0 | 0.0 | 0.00 | 0.00 | 0.00 | 1106.0 | |
| 20260507004648 | 18 | 315 | 0.0 | 0.0 | 0.00 | 0.00 | 0.00 | 1106.1 | |
| 20260507004142 | 18 | 315 | 0.0 | 0.0 | 0.00 | 0.00 | 0.00 | 1106.0 | |
| 20260507003637 | 18 | 315 | 0.0 | 0.0 | 0.00 | 0.00 | 0.00 | 1105.9 | |
| 20260507003132 | 18 | 315 | 0.0 | 0.0 | 0.00 | 0.00 | 0.00 | 1105.9 | |
| 20260507002626 | 18 | 315 | 0.0 | 0.0 | 0.00 | 0.00 | 0.00 | 1105.8 | |
| 20260507002121 | 18 | 315 | 0.0 | 0.0 | 0.00 | 0.00 | 0.00 | 1105.8 | |
| 20260507001615 | 18 | 315 | 0.0 | 0.0 | 0.00 | 0.00 | 0.00 | 1105.8 | |
| 20260507001110 | 18 | 315 | 0.0 | 0.0 | 0.00 | 0.00 | 0.00 | 1106.0 | |
| 20260507000605 | 18 | 315 | 0.0 | 0.0 | 0.00 | 0.00 | 0.00 | 1105.9 | |
| 20260507000059 | 18 | 315 | 0.0 | 0.0 | 0.00 | 0.00 | 0.00 | 1105.9 | |
| 20260506235554 | 18 | 315 | 0.0 | 0.0 | 0.00 | 0.00 | 0.00 | 1105.9 | |
| 20260506235048 | 18 | 315 | 0.0 | 0.0 | 0.00 | 0.00 | 0.00 | 1106.1 | |
| 20260506234543 | 18 | 315 | 0.0 | 0.0 | 0.00 | 0.00 | 0.00 | 1106.0 | |
| 20260506234037 | 18 | 315 | 0.0 | 0.0 | 0.00 | 0.00 | 0.00 | 1106.0 | |
| 20260506233532 | 18 | 315 | 0.0 | 0.0 | 0.00 | 0.00 | 0.00 | 1106.0 | |
| 20260506233026 | 18 | 315 | 0.0 | 0.0 | 0.00 | 0.00 | 0.00 | 1106.0 | |
| 20260506232521 | 18 | 315 | 0.0 | 0.0 | 0.00 | 0.00 | 0.00 | 1106.1 | |
| 20260506232016 | 18 | 315 | 0.0 | 0.0 | 0.00 | 0.00 | 0.00 | 1106.0 | |
| 20260506231510 | 18 | 315 | 0.0 | 0.0 | 0.00 | 0.00 | 0.00 | 1106.1 | |
| 20260506231005 | 18 | 315 | 0.0 | 0.0 | 0.00 | 0.00 | 0.00 | 1106.0 | |
| 20260506230500 | 18 | 315 | 0.0 | 0.0 | 0.00 | 0.00 | 0.00 | 1106.0 | |
| 20260506225954 | 18 | 315 | 0.0 | 0.0 | 0.00 | 0.00 | 0.00 | 1106.0 | |
| 20260506225449 | 18 | 41 | 0.0 | 0.0 | 0.00 | 0.00 | 0.00 | 1106.1 | |
| 20260506224943 | 18 | 5 | 0.0 | 0.0 | 0.00 | 0.00 | 0.00 | 1106.1 | |
| 20260506224438 | 18 | 0 | 0.0 | 0.0 | 0.00 | 0.00 | 0.00 | 1106.0 | |
| 20260506223932 | 18 | 150 | 0.0 | 0.0 | 0.00 | 0.00 | 0.00 | 1106.1 | |
| 20260506223427 | 18 | 225 | 0.0 | 0.0 | 0.00 | 0.00 | 0.00 | 1106.0 | |
| 20260506222921 | 18 | 149 | 0.0 | 0.0 | 0.00 | 0.00 | 0.00 | 1106.1 | |
| 20260506222416 | 18 | 135 | 0.0 | 0.0 | 0.00 | 0.00 | 0.00 | 1106.2 | |
| 20260506221405 | 19 | 270 | 0.0 | 0.0 | 0.00 | 0.00 | 0.00 | 1106.1 | |
| 20260506220900 | 19 | 289 | 0.0 | 0.0 | 0.00 | 0.00 | 0.00 | 1106.1 | |
| 20260506220354 | 19 | 24 | 0.0 | 0.0 | 0.00 | 0.00 | 0.00 | 1106.0 | |
| 20260506215849 | 19 | 270 | 0.0 | 0.0 | 0.00 | 0.00 | 0.00 | 1106.0 | |
| 20260506215343 | 19 | 270 | 0.0 | 0.0 | 0.00 | 0.00 | 0.00 | 1105.9 | |
| 20260506214838 | 19 | 135 | 0.0 | 0.0 | 0.00 | 0.00 | 0.00 | 1105.9 |